Weather Roundup
Issued by NWS Chicago, IL

Home | Current Version | Previous Version | Graphics & Text | Print | Product List | Glossary On
Versions: 1 2 3 4 5 6 7 8 9 10 11 12 13 14 15 16 17 18 19 20 21 22 23 24 25 26 27 28 29 30 31 32 33 34 35 36 37 38 39 40 41 42 43 44 45 46 47 48 49 50
000
NZUS59 KLOT 280206
HRRLOT

CHICAGO AREA WEATHER ROUNDUP
NATIONAL WEATHER SERVICE CHICAGO/ROMEOVILLE IL
900 PM CDT WED AUG 27 2014

NOTE: "FAIR" INDICATES FEW OR NO CLOUDS BELOW 12,000 FEET WITH NO
SIGNIFICANT WEATHER AND/OR OBSTRUCTIONS TO VISIBILITY.

* THESE STATIONS ARE NOT UNDER NWS QUALITY CONTROL. THEY ALSO MAY NOT
  REPORT WEATHER SUCH AS PRECIPITATION OR FOG.

ILZ005-006-012>014-019>023-280300-
NORTHEAST ILLINOIS

CITY           SKY/WX    TMP DP  RH WIND       PRES   REMARKS
OHARE          MOCLDY    70  59  68 NE8       30.12R
MIDWAY         MOCLDY    72  62  71 E7        30.11R
AURORA         PTCLDY    69  62  78 NE7       30.11R
LANSING*       PTCLDY    68  60  75 NE5       30.13R
JOLIET*        MOCLDY    68  60  73 E6        30.13R
WAUKEGAN       PTCLDY    64  60  87 NE5       30.12R
DUPAGE AIRPORT PTCLDY    68  61  78 CALM      30.12R
WHEELING       PTCLDY    69  62  78 CALM      30.14R
KANKAKEE*      MOCLDY    67  63  85 NE6       30.12R
MORRIS*        MOCLDY    68  66  91 E5        30.11R
LEWIS AIRPORT* PTCLDY    67  60  78 E7        30.12R
NORTHERLY IS     N/A     70  61  73 NE10        N/A
$$

WIZ051-052-058>065-066-070>072-280300-
SOUTHEAST WISCONSIN

CITY           SKY/WX    TMP DP  RH WIND       PRES   REMARKS
MILWAUKEE      PTCLDY    65  58  78 E7        30.14R
KENOSHA*       PTCLDY    63  61  93 NE3       30.14R
RACINE*        MOCLDY    65  59  81 NE6       30.15R
BURLINGTON     PTCLDY    63  61  93 NE3       30.14R
WAUKESHA       PTCLDY    63  59  88 E5        30.14R
WEST BEND      PTCLDY    61  55  82 CALM      30.15R
$$

INZ001>003-010>013-019-020-280300-
NORTHWEST INDIANA

CITY           SKY/WX    TMP DP  RH WIND       PRES   REMARKS
GARY*          PTCLDY    70  59  68 NE8       30.13R
MICHIGAN CITY* NOT AVBL
RENSSELAER*    NOT AVBL
VALPARAISO     PTCLDY    64  59  83 CALM      30.13R
$$

LMZ740>746-280300-
SOUTHERN LAKE MICHIGAN

STATION/POSITION TIME  SKY/WX   TEMP WIND        PRES    VSBY
                                AIR  DIR/SP/G
                 (UTC)          (F)  (DEG/KT/KT) (MB)    (MI)
HARRISON CRIB    0200            69   60/ 10/ 11   N/A
BURNHAM HARBOR   0200            70   50/  8/ 11   N/A
CALUMET HARBOR   0200            70   40/  8/ 11 1018.7R
BURNS HARBOR     NOT AVBL
MICHIGAN CITY    0200            69   20/ 15/ 18   N/A
$$

ABBREVIATIONS USED IN REMARKS
   TC - TEMPERATURE IN CELSIUS
  WCI - WIND CHILL INDEX
   HX - HEAT INDEX
  VSB - VISIBILITY
$$


USA.gov is the U.S. government's official web portal to all federal, state and local government web resources and services.